Location: Carri�res
(48.9069°N, 2.1792°E)
Time: 20:01:11
(UTC+00:00)

Okean 1-7 Rocket - Pass Details

Date: 17 January 2021
Orbit: 615 x 650 km, 82.5° (Epoch: 02 March)

Event Time Altitude Azimuth Distance (km) Brightness Sun altitude
Rises 18:07:44 0° 169° (S) 2,936 7.1 -16.4°
Reaches altitude 10° 18:10:02 10° 163° (SSE) 2,036 6.2 -16.7°
Maximum altitude 18:14:18 42° 92° (E) 923 4.0 -17.4°
Enters shadow 18:16:15 27° 40° (NE) 1,244 4.7 -17.7°
